Regional Weather Roundup
Issued by NWS

Home | Current Version | Previous Version | Text Only | Print | Product List | Glossary On
Versions: 1 2 3 4 5 6 7 8 9 10 11 12 13 14 15 16 17 18 19 20 21 22 23 24 25 26 27 28 29 30 31 32 33 34 35 36 37 38 39 40 41 42 43 44 45 46 47 48 49 50
772
ASUS43 KMKX 270411
RWRWI

WISCONSIN REGIONAL WEATHER ROUNDUP
NATIONAL WEATHER SERVICE MILWAUKEE/SULLIVAN WI
1100 PM CDT MON SEP 26 2016

NOTE: "FAIR" INDICATES FEW OR NO CLOUDS BELOW 12,000 FEET WITH NO
SIGNIFICANT WEATHER AND/OR OBSTRUCTIONS TO VISIBILITY.

WIZ001-002-006>008-014>016-023>028-270500-
NORTHWEST WISCONSIN

CITY           SKY/WX    TMP DP  RH WIND       PRES   REMARKS
SUPERIOR ARPT  CLOUDY    55  44  68 W14G25    29.73F
ASHLAND        CLOUDY    53  45  74 W16G28    29.68F
HAYWARD        CLOUDY    54  41  61 W8G18     29.74F
SIREN          CLOUDY    55  41  60 W8        29.78F
CUMBERLAND     CLOUDY    52  37  58 W13G20    29.78F
RICE LAKE      CLOUDY    54  40  59 W8        29.79F
CHETEK         NOT AVBL
LADYSMITH      CLOUDY    55  44  66 W10       29.77F
EAU CLAIRE     CLEAR     50  39  66 W9        29.80F
MENOMONIE      CLEAR     54  39  57 W10       29.82F
NEW RICHMOND   CLEAR     52  38  60 W12       29.83F
OSCEOLA        PTCLDY    55  40  57 W14G20    29.86S
$$

WIZ003>005-009-010-017-018-270500-
NORTH CENTRAL WISCONSIN

CITY           SKY/WX    TMP DP  RH WIND       PRES   REMARKS
MANITOWISH WTR NOT AVBL
ARBOR VITAE    DRIZZLE   51  49  92 W12G20    29.68F
WOODRUFF       DRIZZLE   51  49  92 W12G20    29.68F
RHINELANDER    LGT RAIN  49  46  90 W16G23    29.70F
EAGLE RIVER    CLOUDY    48  46  93 W15G30    29.65F
LAND O LAKES   CLOUDY    48  46  92 W12G18    29.66F
PHILLIPS       CLOUDY    50  44  79 W6        29.72F
TOMAHAWK       LGT RAIN  49  43  79 W7        29.73F
MEDFORD        CLOUDY    52  40  63 W10       29.76S
MERRILL        CLOUDY    53  42  66 W10       29.74F
$$

WIZ029-030-035-036-043>047-270500-
CENTRAL WISCONSIN

CITY           SKY/WX    TMP DP  RH WIND       PRES   REMARKS
WAUSAU         CLOUDY    53  39  59 W14       29.74F
MOSINEE        MOCLDY    52  39  62 W12G17    29.77F
MARSHFIELD     CLOUDY    53  39  59 W9        29.78F
STEVENS POINT  CLOUDY    52  39  60 W8        29.78F
WAUPACA        MOCLDY    56  41  57 SW10      29.78F
WAUTOMA        NOT AVBL
WISC RAPIDS    CLOUDY    54  40  59 W9        29.81F
CAMP DOUGLAS   CLEAR     53  38  56 W10       29.82F
$$

WIZ011>013-019>022-031-037>040-048>050-270500-
NORTHEAST WISCONSIN

CITY           SKY/WX    TMP DP  RH WIND       PRES   REMARKS
ANTIGO         CLOUDY    50  42  72 W12       29.73F
SHAWANO        CLOUDY    57  40  53 W9G17     29.74S
OCONTO         NOT AVBL
STURGEON BAY   CLOUDY    57  43  59 W16       29.72F
GREEN BAY      CLOUDY    54  43  66 SW9       29.75F
MANITOWOC      PTCLDY    56  41  57 MISG      29.78F
APPLETON       MOCLDY    54  39  58 SW9       29.77F
CLINTONVILLE   NOT AVBL
OSHKOSH        PTCLDY    53  40  61 VRB6      29.79F
$$

WIZ032>034-041-042-053>061-270500-
SOUTHWEST WISCONSIN

CITY           SKY/WX    TMP DP  RH WIND       PRES   REMARKS
LA CROSSE      CLEAR     61  36  39 W15       29.84F
SPARTA         CLEAR     42  40  95 CALM      29.85S
VIROQUA        CLEAR     53  35  51 W8        29.87F
BOSCOBEL       CLEAR     50  44  80 CALM      29.89F
PRAIRIE DU CHI CLEAR     59  33  37 W10       29.89F
PLATTEVILLE    CLEAR     50  41  69 SW8       29.91F
$$

WIZ056-057-062-063-064-067-068-270500-
SOUTH CENTRAL WISCONSIN

CITY           SKY/WX    TMP DP  RH WIND       PRES   REMARKS
REEDSBURG      NOT AVBL
BARABOO/DELLS  CLEAR     54  34  47 W9        29.84F
LONE ROCK      CLEAR     46  41  82 CALM      29.88F
MINERAL POINT  CLEAR     54  36  50 W8        29.89F
MADISON        CLEAR     57  38  48 VRB5      29.85F
MIDDLETON      NOT AVBL
WATERTOWN      CLEAR     48  42  78 SW6       29.84F
MONROE         CLEAR     55  36  47 SW13      29.90F
JANESVILLE     CLEAR     55  36  47 W7        29.88F
$$

WIZ051-052-058>065-066-070>072-270500-
SOUTHEAST WISCONSIN

CITY           SKY/WX    TMP DP  RH WIND       PRES   REMARKS
MILWAUKEE      PTCLDY    56  39  53 SW8       29.86F
WAUKESHA       CLEAR     50  37  62 SW7       29.86F
MILWAUKEE/TIMM PTCLDY    52  36  54 SW6       29.86F
RACINE         CLEAR     56  37  49 W6        29.88F
BURLINGTON     CLEAR     53  36  52 W7        29.88F
KENOSHA        CLEAR     52  38  58 W10       29.88F
FOND DU LAC    PTCLDY    52  41  66 SW8       29.81F
SHEBOYGAN      PTCLDY    50  41  71 SW9       29.80F
WEST BEND      PTCLDY    50  41  71 W3        29.83F
JUNEAU         CLEAR     47  40  76 CALM      29.84F
$$

LSZ147-162-270500-
LAKE SUPERIOR

STATION/POSITION TIME  TEMP    WIND        PRES    WAVE
                       AIR SEA DIR/SP/G            HT/PER
                 (UTC) (F)     (DEG/KT/KT) (MB)    (FT/S)
W MID LAKE BUOY  0350   51 46  260/ 21/ 23  999.9F   6/ 6
DEVILS ISLAND    0400   52     260/ 24/ 27 1003.0F
SAXON HARBOR     0340   52     230/  5/ 10 1004.7F
$$

LMZ867-665-643>646-270500-
LAKE MICHIGAN

STATION/POSITION TIME  TEMP    WIND        PRES    WAVE
                       AIR SEA DIR/SP/G            HT/PER
                 (UTC) (F)     (DEG/KT/KT) (MB)    (FT/S)
CHAMBERS ISLAND  0300   57     220/ 10/ 20 1005.8F
N MID LAKE BUOY  0350   59 66  250/ 29/ 35 1003.2F   7/ 6
NORTHPORT PIER   0300   58     260/ 10/ 24 1005.8F
KEWAUNEE LAKESHO 0300   56     220/  7/ 10 1007.7F
SHEBOYGAN LAKESH 0400   55     230/  9/ 11 1008.9F
PORT WASHINGTON  0300   54     240/  4/  6 1011.5F
ATWATER BUOY     0400   58 54  230/ 10/ 14 1010.6F
MILWAUKEE LAKESH 0310   60     230/  8/ 10   N/A
S MID LAKE BUOY  0350   66 71  260/ 21/ 25 1010.3F   5/ 5
KENOSHA   LAKESH 0400   60     250/ 12/ 15 1011.9F
$$

TC  - TEMPERATURE IN CELSIUS
VSB - VISIBILITY IN STATUTE MILES
WCI - WIND CHILL INDEX
HX  - HEAT INDEX





USA.gov is the U.S. government's official web portal to all federal, state and local government web resources and services.